SCP
-0 -0 -0 -0 -0 -0 -0 -0 -0 -0 -0 -0 -0 -0 -0 -0 -0 0 0 0 0 -0 0 0 0 0 0 0 0 0 0 0 0 0 0 0 0 0 0 0 0 0 0 0 0
-0 -0 -0 -0 -0 -0 -0 -0 -0 -0 -0 -0 -0 -0 -0 -0 0 -0 0 0 0 0 0 0 0 0 0 0 0 0 0 0 0 0 0 0 0 0 0 0 0 0 0 0 0
-0 -0 -0 -0 -0 -0 -0 -0 -0 -0 -0 -0 -0 -0 -0 0 0 0 0 0 0 0 -0 -0 0 0 0 0 0 0 0 0 0 0 0 0 0 0 0 0 0 0 0 0 0
-0 -0 -0 -0 -0 -0 -0 -0 -0 -0 -0 -0 -0 -0 -0 0 0 0 0 -0 -0 -0 0 -0 0 0 0 0 0 0 0 0 0 0 0 0 0 0 0 0 0 0 0 0 0
-0 -0 -0 -0 -0 -0 -0 -0 -0 -0 -0 -0 -0 -0 -0 -0 0 0 -0 0 0 0 -0 -0 -0 0 0 0 0 0 0 0 0 0 0 -0 -0 -0 0 0 0 -0 0 0 0
-0 -0 -0 -0 -0 -0 -0 -0 -0 -0 -0 -0 -0 -0 -0 -0 0 -0 -0 0 0 0 0 0 0 0 0 0 0 0 0 0 0 0 0 -0 -0 -0 -0 -0 -0 -0 -0 0 0
-0 -0 -0 -0 -0 -0 -0 -0 -0 -0 -0 -0 -0 0 0 0 0 0 0 0 0 0 0 0 0 0 0 0 0 0 0 0 0 0 0 -0 0 -0 0 0 -0 -0 0 0 0
-0 -0 -0 -0 -0 -0 -0 -0 -0 -0 -0 0 -0 0 0 -0 0 -0 0 0 0 0 0 0 0 0 0 0 0 0 0 0 0 0 0 -0 -0 0 0 0 0 0 0 0 0
-0 -0 -0 -0 -0 -0 -0 -0 -0 -0 -0 -0 0 0 0 -0 -0 -0 0 0 0 0 0 0 0 0 0 0 0 0 0 0 0 0 0 0 0 0 0 0 0 0 0 0 0
-0 -0 -0 -0 -0 -0 -0 -0 0 0 0 -0 -0 0 -0 -0 -0 -0 0 0 0 0 0 0 0 0 0 0 0 0 0 0 0 0 0 0 0 0 0 0 0 0 0 0 0
-0 -0 -0 -0 -0 -0 0 0 0 0 0 0 0 0 -0 -0 -0 -0 0 0 0 0 0 0 0 0 0 0 0 0 0 0 0 0 0 0 0 0 0 0 0 0 0 0 0
-0 -0 -0 -0 -0 0 0 0 0 -0 0 0 -0 -0 -0 -0 -0 -0 0 0 0 0 0 0 0 -0 0 0 0 0 0 0 0 0 0 0 0 0 0 0 0 0 0 0 0
-0 -0 -0 -0 -0 0 0 0 0 0 0 0 0 0 -0 0 -0 -0 0 0 0 0 0 0 -0 0 0 0 0 0 0 0 0 0 0 0 0 0 0 0 0 0 0 0 0
-0 -0 -0 0 0 -0 0 0 -0 0 0 0 0 0 0 0 0 0 0 0 0 0 0 0 0 0 0 0 0 0 0 0 0 0 0 0 0 0 0 0 0 0 0 0 0
-0 -0 0 0 0 0 -0 0 -0 0 0 0 0 -0 0 0 0 0 0 0 0 0 0 0 0 0 0 0 0 0 0 0 0 0 0 0 0 0 0 0 0 0 0 0 0
-0 -0 -0 -0 0 -0 -0 -0 0 0 0 0 0 0 0 0 0 0 0 0 0 0 0 0 0 0 0 0 0 0 0 0 0 0 0 0 0 0 0 0 0 0 0 0 0
-0 -0 -0 -0 -0 -0 0 0 0 0 0 0 0 0 0 0 0 0 0 0 0 0 0 0 0 0 0 0 0 0 0 0 0 0 0 0 0 0 0 0 0 0 0 0 0
-0 0 0 0 0 0 0 0 0 0 0 0 0 0 0 0 0 0 0 0 0 0 0 0 0 0 0 0 0 0 0 0 0 0 0 0 0 0 0 0 0 0 0 0 0
0 0 0 0 0 0 0 0 0 0 0 0 0 0 0 0 0 0 0 0 0 0 0 0 0 0 0 0 0 0 0 0 0 0 0 0 0 0 0 0 0 0 0 0 0
0 0 0 0 0 0 0 0 0 0 0 0 0 0 0 0 0 0 0 0 0 0 0 0 0 0 0 0 0 0 0 0 0 0 0 0 0 0 0 0 0 0 0 -0 0
0 0 0 0 0 0 0 0 0 0 0 0 0 0 0 0 0 0 0 0 0 0 0 0 0 0 0 0 0 0 0 0 0 0 0 0 0 0 0 0 0 0 0 0 0
0 0 0 0 0 0 0 0 0 0 0 0 0 0 0 0 0 0 0 0 0 0 0 0 0 0 0 0 0 0 0 0 0 0 0 0 0 0 0 0 0 -0 -0 0 0
-0 -0 0 0 0 0 0 0 0 0 0 0 0 0 0 0 0 0 0 0 0 0 0 0 0 0 0 0 0 0 0 0 0 0 0 0 0 0 0 0 0 0 0 0 0
-0 -0 0 0 0 0 0 0 0 0 0 0 0 0 0 0 0 0 0 0 0 0 0 0 0 0 0 0 0 0 0 0 0 0 0 0 0 0 0 0 0 0 0 0 0
-0 -0 0 0 0 0 0 0 0 0 0 0 0 0 0 0 0 0 0 0 0 0 0 0 0 0 0 0 0 0 0 0 0 0 0 0 0 0 0 0 0 0 0 0 -0
-0 0 0 0 0 0 0 0 0 0 0 0 0 0 0 0 0 0 0 0 0 0 0 0 0 0 0 0 0 0 0 0 0 0 0 0 0 0 0 0 0 0 0 0 -0
0 0 0 0 0 0 0 0 0 0 0 0 0 0 0 0 0 0 0 0 0 0 0 0 0 0 0 0 0 0 0 0 0 0 0 0 0 0 0 0 0 0 0 -0 -0
Wind_Speed_500mb
21 19 18 19 20 18 16 15 13 13 21 28 28 26 27 25 23 27 28 27 30 27 22 12 11 9 12 12 10 5 9 3 1 5 8 9 11 16 18 16 23 23 19 27 32
21 20 20 21 21 20 19 18 19 24 28 27 23 21 24 37 45 39 30 34 37 25 31 20 15 14 14 11 9 10 8 3 3 6 5 8 6 12 12 25 19 42 36 39 35
20 19 20 21 21 20 19 21 25 29 29 22 17 18 20 28 30 28 27 31 35 34 24 25 16 18 13 9 12 4 7 5 1 6 18 5 3 10 7 13 47 46 51 40 37
19 18 19 20 19 18 19 22 26 26 22 17 16 15 14 11 9 17 24 27 23 25 30 25 13 10 9 8 15 7 5 3 10 19 15 12 14 12 9 19 39 46 44 45 50
19 16 17 18 16 14 16 19 22 20 16 16 21 17 13 22 19 14 16 18 17 24 34 27 42 11 7 6 9 7 4 14 25 19 13 13 21 11 28 41 49 52 50 50 49
19 16 16 16 13 12 15 18 18 15 12 14 19 21 17 20 15 12 15 19 18 23 26 28 20 14 10 2 6 10 15 22 4 16 9 5 4 4 34 40 64 60 60 60 59
18 14 14 15 12 12 11 13 14 11 9 9 14 14 23 13 9 17 20 24 22 24 29 27 24 25 12 3 18 10 12 9 9 18 11 21 5 9 46 62 68 64 59 58 61
17 11 11 11 12 11 9 7 7 5 2 5 10 10 8 6 8 18 20 23 23 22 20 18 22 15 11 14 16 12 11 11 15 15 6 17 16 14 58 64 69 71 67 71 69
22 7 6 8 11 12 7 4 1 3 4 5 6 12 3 3 3 10 12 16 12 18 10 11 13 11 11 9 12 15 8 9 17 13 7 9 19 27 68 65 66 66 73 61 60
24 8 1 6 10 10 6 3 4 4 4 8 10 2 1 2 4 8 4 6 15 16 9 9 10 8 9 11 3 9 8 10 12 11 2 8 17 18 67 53 52 51 41 43 49
27 10 4 7 9 13 8 1 4 3 15 8 8 7 9 4 11 9 7 8 5 8 8 10 11 5 9 11 10 7 7 14 12 15 6 15 14 24 51 44 26 31 41 47 47
28 10 6 9 8 8 16 12 10 11 14 16 21 24 23 19 9 12 10 9 3 1 5 13 5 15 9 8 9 11 9 13 12 8 4 19 29 25 20 11 9 27 39 47 51
30 11 9 14 12 12 12 13 8 13 3 10 3 10 7 8 9 8 21 9 6 3 4 9 10 7 7 6 8 7 8 8 12 8 9 11 13 3 5 5 24 32 35 43 49
32 9 12 12 7 6 9 10 13 5 8 5 1 2 6 6 6 8 17 11 1 8 5 9 5 5 5 10 7 7 8 9 14 8 11 5 14 8 2 10 11 31 36 43 56
33 10 12 5 5 5 11 15 7 5 8 3 2 2 1 5 12 11 8 7 8 8 10 15 4 10 7 6 5 12 8 12 16 9 5 4 1 12 5 6 9 17 30 36 48
35 12 7 4 3 15 20 7 3 9 3 2 4 6 7 12 12 8 1 2 1 4 2 12 9 4 7 3 3 7 7 3 8 5 2 6 6 9 6 8 8 12 24 33 44
29 11 10 2 13 22 13 1 9 8 5 9 5 8 6 9 11 14 10 9 2 10 7 11 7 5 3 6 8 15 13 9 11 8 8 4 8 16 14 8 10 13 26 36 40
23 7 3 3 16 28 14 9 9 4 5 3 8 6 6 12 5 11 7 8 6 6 1 3 14 2 3 7 8 1 10 8 11 6 19 19 13 10 6 10 13 18 24 33 51
30 7 2 7 16 25 8 10 3 5 7 7 8 8 5 3 4 13 4 4 6 3 2 7 9 7 8 5 11 6 5 7 5 2 6 8 12 14 1 3 4 16 22 35 58
34 9 7 8 17 20 9 3 3 4 10 4 1 3 2 5 4 8 6 4 4 5 5 7 14 10 6 4 3 6 11 1 5 7 9 10 9 10 7 10 12 14 33 51 63
29 5 11 10 15 8 7 3 6 9 22 1 5 4 7 3 1 4 6 6 5 4 2 5 8 10 4 10 16 7 2 6 4 9 9 6 12 12 12 15 14 20 46 49 50
19 5 21 8 8 6 3 6 12 10 20 10 6 2 2 2 4 5 8 7 7 2 7 4 3 11 22 21 9 8 12 14 8 11 9 6 23 11 15 4 11 19 31 41 37
24 10 19 8 6 6 10 8 6 16 12 11 10 10 9 2 7 6 5 9 16 10 8 2 4 12 18 12 6 3 6 8 1 3 15 11 22 3 6 15 37 23 27 32 36
16 9 14 22 15 5 9 7 11 19 8 8 9 12 11 8 3 9 6 7 23 31 37 11 8 15 11 22 9 21 31 17 12 12 32 35 50 31 28 16 31 24 28 25 32
19 7 9 8 10 8 5 8 7 13 10 27 7 9 4 6 8 8 6 8 12 21 4 6 8 9 15 28 33 35 38 33 28 39 23 50 35 31 30 31 33 22 22 41 49
13 12 11 6 14 9 10 8 8 10 8 6 5 10 7 9 13 20 6 4 12 10 6 8 8 5 11 16 9 16 33 25 27 35 33 40 42 25 38 15 14 18 37 47 54
21 15 9 5 6 3 3 7 6 10 1 5 1 5 7 9 25 51 51 42 33 16 1 4 2 5 9 10 26 17 10 5 9 8 10 12 14 21 17 10 17 40 52 53 59
Wind_Direction_500mb
54 58 51 43 42 41 37 45 65 83 102 110 98 75 63 65 96 100 73 52 37 42 49 62 37 74 90 59 54 59 61 49 108 71 285 351 7 345 347 326 339 345 325 327 332
43 44 40 34 34 39 42 52 79 99 111 110 95 63 82 83 80 75 63 56 48 50 49 58 62 94 66 44 40 73 84 256 227 324 315 299 305 318 339 326 328 329 335 335 331
38 36 32 30 32 39 51 74 92 104 111 104 77 63 120 108 74 55 52 51 47 44 34 32 62 90 73 56 17 106 120 196 227 336 321 270 324 332 296 326 344 323 327 328 331
33 35 30 26 32 42 55 83 101 106 100 81 46 36 63 170 100 65 53 50 52 43 38 42 57 61 60 26 359 81 55 27 303 320 325 318 339 340 215 310 352 355 336 320 312
31 35 34 29 34 56 74 93 105 105 92 57 46 54 73 90 95 73 44 34 49 49 46 50 47 65 77 344 16 52 306 302 323 346 359 9 351 325 336 349 343 339 335 332 325
24 31 34 31 41 71 93 110 120 115 86 69 52 51 86 85 96 69 57 51 54 43 36 38 40 67 105 76 93 301 288 301 5 21 73 24 297 330 336 334 331 332 328 321 318
13 22 28 33 55 71 81 122 135 124 101 60 38 52 69 75 80 49 42 41 38 26 20 19 14 22 359 26 345 310 355 349 24 6 14 345 338 340 328 327 325 327 324 324 323
10 8 23 44 68 73 72 95 150 152 156 359 12 40 79 76 56 62 63 53 45 31 12 355 358 15 32 333 7 29 46 7 307 345 356 42 284 284 325 324 320 321 322 322 320
8 1 15 55 88 74 57 60 150 233 266 295 355 15 89 10 36 60 48 30 32 11 334 333 0 49 27 51 7 12 329 324 317 332 316 63 304 306 320 318 316 320 325 329 328
2 4 68 88 103 51 26 8 304 318 285 289 294 64 130 66 286 336 323 333 344 356 88 46 49 57 38 60 267 277 304 268 259 290 270 300 265 290 302 310 307 320 331 332 327
1 6 150 120 112 74 52 37 355 354 319 257 269 285 267 274 292 292 256 235 321 39 34 28 61 149 226 191 202 216 227 252 257 266 220 256 261 270 281 302 331 353 338 332 333
7 17 137 134 122 84 61 79 50 325 308 288 259 257 253 267 288 242 211 196 122 83 61 21 155 214 210 207 217 218 250 266 282 257 206 280 286 243 272 289 26 354 351 351 349
11 27 123 126 114 85 85 59 357 322 308 309 267 235 245 240 238 256 193 197 184 175 145 157 239 182 184 288 296 264 232 269 252 301 252 296 288 202 301 17 2 11 10 15 12
12 39 134 136 110 129 59 10 347 342 62 304 264 71 207 232 281 283 228 199 172 212 188 226 261 231 262 260 168 299 191 253 274 329 285 71 289 294 287 307 2 2 13 20 24
14 42 150 139 147 30 340 323 310 310 61 290 181 107 253 211 342 11 217 238 215 187 105 250 278 279 267 229 146 228 288 246 264 246 22 270 1 268 218 301 322 333 355 6 14
14 48 133 175 328 335 323 320 292 46 79 53 65 20 37 23 4 336 111 231 52 159 270 247 275 217 216 129 109 303 336 344 50 101 36 229 96 274 259 219 295 300 343 2 4
12 61 96 130 337 345 345 285 41 96 328 354 6 32 84 345 12 19 8 13 357 359 340 336 290 287 111 30 6 33 40 332 344 1 238 239 317 241 263 211 222 266 312 336 340
5 37 87 322 347 353 345 54 76 353 19 341 24 39 81 22 30 354 14 4 355 90 181 88 327 230 152 149 235 151 142 146 294 268 283 282 244 253 236 183 245 287 301 347 351
1 336 279 321 344 345 347 62 162 349 329 1 355 74 1 331 25 19 348 243 214 124 68 300 259 275 242 206 145 191 188 190 219 258 5 241 289 317 68 287 283 280 322 333 341
3 78 68 10 348 343 69 177 152 347 333 40 44 94 304 286 21 31 312 268 14 62 77 287 299 256 293 75 266 188 163 6 19 291 267 284 258 242 282 242 263 312 325 329 330
360 81 10 358 350 18 102 272 297 341 16 265 216 265 231 285 153 244 258 324 18 347 8 245 169 283 6 209 226 281 243 69 142 166 214 290 262 208 223 245 282 299 327 333 332
5 47 9 354 37 36 87 313 324 357 7 359 53 218 191 128 269 258 242 225 48 37 337 315 187 267 257 265 264 173 218 167 158 245 236 202 267 231 259 327 328 316 344 356 354
352 341 11 1 74 354 325 319 345 10 1 17 24 47 8 320 353 240 289 122 47 32 12 307 295 316 320 355 4 107 190 203 95 85 214 248 266 258 287 297 307 314 320 331 353
2 8 20 54 56 73 6 348 338 357 64 9 37 64 25 4 23 284 266 300 339 320 304 270 203 189 218 269 223 283 275 247 195 252 267 258 279 286 293 280 292 301 310 325 343
22 43 16 333 350 10 350 351 2 2 11 25 59 63 351 292 298 255 265 318 316 302 35 97 244 213 241 267 279 273 276 270 246 249 249 273 275 276 295 293 294 295 313 324 328
31 4 348 323 318 336 359 17 36 333 342 8 62 313 281 225 213 282 279 190 235 335 55 13 275 323 277 264 296 288 280 272 253 261 258 263 273 276 277 302 304 311 326 318 315
14 352 331 342 358 56 10 327 2 352 101 74 273 337 308 265 297 282 271 260 250 256 121 241 188 322 267 348 317 295 267 271 269 281 304 287 310 326 300 307 307 318 317 307 315
Wind_Speed_850mb
21 19 18 19 20 18 16 15 13 13 21 28 28 26 27 25 23 27 28 27 30 27 22 12 11 9 12 12 10 5 9 3 1 5 8 9 11 16 18 16 23 23 19 27 32
21 20 20 21 21 20 19 18 19 24 28 27 23 21 24 37 45 39 30 34 37 25 31 20 15 14 14 11 9 10 8 3 3 6 5 8 6 12 12 25 19 42 36 39 35
20 19 20 21 21 20 19 21 25 29 29 22 17 18 20 28 30 28 27 31 35 34 24 25 16 18 13 9 12 4 7 5 1 6 18 5 3 10 7 13 47 46 51 40 37
19 18 19 20 19 18 19 22 26 26 22 17 16 15 14 11 9 17 24 27 23 25 30 25 13 10 9 8 15 7 5 3 10 19 15 12 14 12 9 19 39 46 44 45 50
19 16 17 18 16 14 16 19 22 20 16 16 21 17 13 22 19 14 16 18 17 24 34 27 42 11 7 6 9 7 4 14 25 19 13 13 21 11 28 41 49 52 50 50 49
19 16 16 16 13 12 15 18 18 15 12 14 19 21 17 20 15 12 15 19 18 23 26 28 20 14 10 2 6 10 15 22 4 16 9 5 4 4 34 40 64 60 60 60 59
18 14 14 15 12 12 11 13 14 11 9 9 14 14 23 13 9 17 20 24 22 24 29 27 24 25 12 3 18 10 12 9 9 18 11 21 5 9 46 62 68 64 59 58 61
17 11 11 11 12 11 9 7 7 5 2 5 10 10 8 6 8 18 20 23 23 22 20 18 22 15 11 14 16 12 11 11 15 15 6 17 16 14 58 64 69 71 67 71 69
22 7 6 8 11 12 7 4 1 3 4 5 6 12 3 3 3 10 12 16 12 18 10 11 13 11 11 9 12 15 8 9 17 13 7 9 19 27 68 65 66 66 73 61 60
24 8 1 6 10 10 6 3 4 4 4 8 10 2 1 2 4 8 4 6 15 16 9 9 10 8 9 11 3 9 8 10 12 11 2 8 17 18 67 53 52 51 41 43 49
27 10 4 7 9 13 8 1 4 3 15 8 8 7 9 4 11 9 7 8 5 8 8 10 11 5 9 11 10 7 7 14 12 15 6 15 14 24 51 44 26 31 41 47 47
28 10 6 9 8 8 16 12 10 11 14 16 21 24 23 19 9 12 10 9 3 1 5 13 5 15 9 8 9 11 9 13 12 8 4 19 29 25 20 11 9 27 39 47 51
30 11 9 14 12 12 12 13 8 13 3 10 3 10 7 8 9 8 21 9 6 3 4 9 10 7 7 6 8 7 8 8 12 8 9 11 13 3 5 5 24 32 35 43 49
32 9 12 12 7 6 9 10 13 5 8 5 1 2 6 6 6 8 17 11 1 8 5 9 5 5 5 10 7 7 8 9 14 8 11 5 14 8 2 10 11 31 36 43 56
33 10 12 5 5 5 11 15 7 5 8 3 2 2 1 5 12 11 8 7 8 8 10 15 4 10 7 6 5 12 8 12 16 9 5 4 1 12 5 6 9 17 30 36 48
35 12 7 4 3 15 20 7 3 9 3 2 4 6 7 12 12 8 1 2 1 4 2 12 9 4 7 3 3 7 7 3 8 5 2 6 6 9 6 8 8 12 24 33 44
29 11 10 2 13 22 13 1 9 8 5 9 5 8 6 9 11 14 10 9 2 10 7 11 7 5 3 6 8 15 13 9 11 8 8 4 8 16 14 8 10 13 26 36 40
23 7 3 3 16 28 14 9 9 4 5 3 8 6 6 12 5 11 7 8 6 6 1 3 14 2 3 7 8 1 10 8 11 6 19 19 13 10 6 10 13 18 24 33 51
30 7 2 7 16 25 8 10 3 5 7 7 8 8 5 3 4 13 4 4 6 3 2 7 9 7 8 5 11 6 5 7 5 2 6 8 12 14 1 3 4 16 22 35 58
34 9 7 8 17 20 9 3 3 4 10 4 1 3 2 5 4 8 6 4 4 5 5 7 14 10 6 4 3 6 11 1 5 7 9 10 9 10 7 10 12 14 33 51 63
29 5 11 10 15 8 7 3 6 9 22 1 5 4 7 3 1 4 6 6 5 4 2 5 8 10 4 10 16 7 2 6 4 9 9 6 12 12 12 15 14 20 46 49 50
19 5 21 8 8 6 3 6 12 10 20 10 6 2 2 2 4 5 8 7 7 2 7 4 3 11 22 21 9 8 12 14 8 11 9 6 23 11 15 4 11 19 31 41 37
24 10 19 8 6 6 10 8 6 16 12 11 10 10 9 2 7 6 5 9 16 10 8 2 4 12 18 12 6 3 6 8 1 3 15 11 22 3 6 15 37 23 27 32 36
16 9 14 22 15 5 9 7 11 19 8 8 9 12 11 8 3 9 6 7 23 31 37 11 8 15 11 22 9 21 31 17 12 12 32 35 50 31 28 16 31 24 28 25 32
19 7 9 8 10 8 5 8 7 13 10 27 7 9 4 6 8 8 6 8 12 21 4 6 8 9 15 28 33 35 38 33 28 39 23 50 35 31 30 31 33 22 22 41 49
13 12 11 6 14 9 10 8 8 10 8 6 5 10 7 9 13 20 6 4 12 10 6 8 8 5 11 16 9 16 33 25 27 35 33 40 42 25 38 15 14 18 37 47 54
21 15 9 5 6 3 3 7 6 10 1 5 1 5 7 9 25 51 51 42 33 16 1 4 2 5 9 10 26 17 10 5 9 8 10 12 14 21 17 10 17 40 52 53 59
Wind_Direction_850mb
54 58 51 43 42 41 37 45 65 83 102 110 98 75 63 65 96 100 73 52 37 42 49 62 37 74 90 59 54 59 61 49 108 71 285 351 7 345 347 326 339 345 325 327 332
43 44 40 34 34 39 42 52 79 99 111 110 95 63 82 83 80 75 63 56 48 50 49 58 62 94 66 44 40 73 84 256 227 324 315 299 305 318 339 326 328 329 335 335 331
38 36 32 30 32 39 51 74 92 104 111 104 77 63 120 108 74 55 52 51 47 44 34 32 62 90 73 56 17 106 120 196 227 336 321 270 324 332 296 326 344 323 327 328 331
33 35 30 26 32 42 55 83 101 106 100 81 46 36 63 170 100 65 53 50 52 43 38 42 57 61 60 26 359 81 55 27 303 320 325 318 339 340 215 310 352 355 336 320 312
31 35 34 29 34 56 74 93 105 105 92 57 46 54 73 90 95 73 44 34 49 49 46 50 47 65 77 344 16 52 306 302 323 346 359 9 351 325 336 349 343 339 335 332 325
24 31 34 31 41 71 93 110 120 115 86 69 52 51 86 85 96 69 57 51 54 43 36 38 40 67 105 76 93 301 288 301 5 21 73 24 297 330 336 334 331 332 328 321 318
13 22 28 33 55 71 81 122 135 124 101 60 38 52 69 75 80 49 42 41 38 26 20 19 14 22 359 26 345 310 355 349 24 6 14 345 338 340 328 327 325 327 324 324 323
10 8 23 44 68 73 72 95 150 152 156 359 12 40 79 76 56 62 63 53 45 31 12 355 358 15 32 333 7 29 46 7 307 345 356 42 284 284 325 324 320 321 322 322 320
8 1 15 55 88 74 57 60 150 233 266 295 355 15 89 10 36 60 48 30 32 11 334 333 0 49 27 51 7 12 329 324 317 332 316 63 304 306 320 318 316 320 325 329 328
2 4 68 88 103 51 26 8 304 318 285 289 294 64 130 66 286 336 323 333 344 356 88 46 49 57 38 60 267 277 304 268 259 290 270 300 265 290 302 310 307 320 331 332 327
1 6 150 120 112 74 52 37 355 354 319 257 269 285 267 274 292 292 256 235 321 39 34 28 61 149 226 191 202 216 227 252 257 266 220 256 261 270 281 302 331 353 338 332 333
7 17 137 134 122 84 61 79 50 325 308 288 259 257 253 267 288 242 211 196 122 83 61 21 155 214 210 207 217 218 250 266 282 257 206 280 286 243 272 289 26 354 351 351 349
11 27 123 126 114 85 85 59 357 322 308 309 267 235 245 240 238 256 193 197 184 175 145 157 239 182 184 288 296 264 232 269 252 301 252 296 288 202 301 17 2 11 10 15 12
12 39 134 136 110 129 59 10 347 342 62 304 264 71 207 232 281 283 228 199 172 212 188 226 261 231 262 260 168 299 191 253 274 329 285 71 289 294 287 307 2 2 13 20 24
14 42 150 139 147 30 340 323 310 310 61 290 181 107 253 211 342 11 217 238 215 187 105 250 278 279 267 229 146 228 288 246 264 246 22 270 1 268 218 301 322 333 355 6 14
14 48 133 175 328 335 323 320 292 46 79 53 65 20 37 23 4 336 111 231 52 159 270 247 275 217 216 129 109 303 336 344 50 101 36 229 96 274 259 219 295 300 343 2 4
12 61 96 130 337 345 345 285 41 96 328 354 6 32 84 345 12 19 8 13 357 359 340 336 290 287 111 30 6 33 40 332 344 1 238 239 317 241 263 211 222 266 312 336 340
5 37 87 322 347 353 345 54 76 353 19 341 24 39 81 22 30 354 14 4 355 90 181 88 327 230 152 149 235 151 142 146 294 268 283 282 244 253 236 183 245 287 301 347 351
1 336 279 321 344 345 347 62 162 349 329 1 355 74 1 331 25 19 348 243 214 124 68 300 259 275 242 206 145 191 188 190 219 258 5 241 289 317 68 287 283 280 322 333 341
3 78 68 10 348 343 69 177 152 347 333 40 44 94 304 286 21 31 312 268 14 62 77 287 299 256 293 75 266 188 163 6 19 291 267 284 258 242 282 242 263 312 325 329 330
360 81 10 358 350 18 102 272 297 341 16 265 216 265 231 285 153 244 258 324 18 347 8 245 169 283 6 209 226 281 243 69 142 166 214 290 262 208 223 245 282 299 327 333 332
5 47 9 354 37 36 87 313 324 357 7 359 53 218 191 128 269 258 242 225 48 37 337 315 187 267 257 265 264 173 218 167 158 245 236 202 267 231 259 327 328 316 344 356 354
352 341 11 1 74 354 325 319 345 10 1 17 24 47 8 320 353 240 289 122 47 32 12 307 295 316 320 355 4 107 190 203 95 85 214 248 266 258 287 297 307 314 320 331 353
2 8 20 54 56 73 6 348 338 357 64 9 37 64 25 4 23 284 266 300 339 320 304 270 203 189 218 269 223 283 275 247 195 252 267 258 279 286 293 280 292 301 310 325 343
22 43 16 333 350 10 350 351 2 2 11 25 59 63 351 292 298 255 265 318 316 302 35 97 244 213 241 267 279 273 276 270 246 249 249 273 275 276 295 293 294 295 313 324 328
31 4 348 323 318 336 359 17 36 333 342 8 62 313 281 225 213 282 279 190 235 335 55 13 275 323 277 264 296 288 280 272 253 261 258 263 273 276 277 302 304 311 326 318 315
14 352 331 342 358 56 10 327 2 352 101 74 273 337 308 265 297 282 271 260 250 256 121 241 188 322 267 348 317 295 267 271 269 281 304 287 310 326 300 307 307 318 317 307 315